CFG3PK EDDF-EDDH

Flight info

Callsign CFG3PK
Flight time 0h 45m
Altitude 33000
Route MARUN8S MARUN Y150 TOLGI DCT SAS/N0453F320 P605 NOLGO NOLGO2P
Aircraft A320/M-SDE3FGHIRWY/LB1

Departure

Time 2026-04-16 09:15
Airport Frankfurt Main Airport (EDDF)

Arrival

Time 2026-04-16 10:01
Airport Hamburg Helmut Schmidt Airport (EDDH)
Time Latitude Longitude Altitude Speed Heading
2026-04-16 08:45 50.04834 8.58835 364 ft 0 kts 340°
2026-04-16 09:06 50.04811 8.58848 366 ft 4 kts 340°
2026-04-16 09:06 50.04786 8.58862 365 ft 4 kts 340°
2026-04-16 09:06 50.04761 8.58876 362 ft 4 kts 340°
2026-04-16 09:07 50.04749 8.58883 363 ft 0 kts 340°
2026-04-16 09:09 50.04757 8.58868 364 ft 4 kts 291°
2026-04-16 09:09 50.04744 8.58839 364 ft 5 kts 238°
2026-04-16 09:10 50.04694 8.58767 361 ft 8 kts 189°
2026-04-16 09:10 50.04685 8.58765 361 ft 0 kts 189°
2026-04-16 09:14 50.04646 8.58758 362 ft 9 kts 186°
2026-04-16 09:14 50.04578 8.58710 364 ft 12 kts 218°
2026-04-16 09:14 50.04501 8.58619 366 ft 18 kts 219°
2026-04-16 09:14 50.04449 8.58433 369 ft 24 kts 250°
2026-04-16 09:15 50.04326 8.57920 368 ft 84 kts 250°
2026-04-16 09:15 50.04052 8.56769 363 ft 141 kts 250°
2026-04-16 09:15 50.03668 8.55122 571 ft 168 kts 250°
2026-04-16 09:15 50.03277 8.53424 1218 ft 169 kts 249°
2026-04-16 09:16 50.02864 8.51716 1989 ft 168 kts 249°
2026-04-16 09:16 50.02324 8.50032 2423 ft 186 kts 234°
2026-04-16 09:16 50.01315 8.48645 2814 ft 201 kts 210°
2026-04-16 09:16 49.99968 8.47962 3404 ft 208 kts 189°
2026-04-16 09:17 49.98531 8.47641 4050 ft 210 kts 189°
2026-04-16 09:17 49.97081 8.47318 4740 ft 210 kts 191°
2026-04-16 09:17 49.95646 8.46885 5382 ft 212 kts 199°
2026-04-16 09:17 49.94193 8.46211 5824 ft 224 kts 199°
2026-04-16 09:18 49.92644 8.45425 6195 ft 242 kts 208°
2026-04-16 09:18 49.91341 8.43796 6884 ft 243 kts 236°
2026-04-16 09:18 49.90672 8.41406 7625 ft 245 kts 263°
2026-04-16 09:18 49.90813 8.38787 8395 ft 247 kts 290°
2026-04-16 09:19 49.91744 8.36551 9176 ft 252 kts 317°
2026-04-16 09:19 49.93259 8.35160 9941 ft 258 kts 335°
2026-04-16 09:19 49.94978 8.34023 10356 ft 276 kts 336°
2026-04-16 09:19 49.96811 8.32841 10680 ft 297 kts 336°
2026-04-16 09:20 49.98795 8.31564 10880 ft 320 kts 336°
2026-04-16 09:20 50.00896 8.30216 11090 ft 340 kts 337°
2026-04-16 09:20 50.03206 8.29196 11646 ft 351 kts 348°
2026-04-16 09:20 50.05665 8.28953 12317 ft 358 kts
2026-04-16 09:21 50.08148 8.29532 12989 ft 365 kts 12°
2026-04-16 09:21 50.10587 8.30751 13652 ft 371 kts 15°
2026-04-16 09:21 50.13050 8.32034 14289 ft 375 kts 15°
2026-04-16 09:21 50.15536 8.33341 14864 ft 379 kts 16°
2026-04-16 09:22 50.18049 8.34669 15450 ft 383 kts 15°
2026-04-16 09:22 50.20586 8.36008 16031 ft 387 kts 15°
2026-04-16 09:22 50.23147 8.37359 16628 ft 390 kts 15°
2026-04-16 09:22 50.25734 8.38725 17211 ft 394 kts 15°
2026-04-16 09:23 50.28342 8.40099 17794 ft 397 kts 15°
2026-04-16 09:23 50.30971 8.41490 18371 ft 401 kts 15°
2026-04-16 09:23 50.33624 8.42924 18897 ft 405 kts 16°
2026-04-16 09:23 50.36293 8.44390 19456 ft 408 kts 16°
2026-04-16 09:24 50.38984 8.45874 19984 ft 411 kts 15°
2026-04-16 09:24 50.41696 8.47368 20488 ft 414 kts 15°
2026-04-16 09:24 50.44429 8.48873 20955 ft 418 kts 15°
2026-04-16 09:24 50.47180 8.50382 21427 ft 420 kts 15°
2026-04-16 09:25 50.49960 8.51838 21908 ft 422 kts 13°
2026-04-16 09:25 50.52776 8.53212 22348 ft 425 kts 12°
2026-04-16 09:25 50.55614 8.54541 22789 ft 427 kts 12°
2026-04-16 09:25 50.58479 8.55862 23238 ft 430 kts 12°
2026-04-16 09:26 50.61359 8.57192 23647 ft 433 kts 12°
2026-04-16 09:26 50.64259 8.58551 24014 ft 436 kts 12°
2026-04-16 09:26 50.67129 8.59919 24344 ft 438 kts 12°
2026-04-16 09:26 50.70050 8.61327 24687 ft 440 kts 12°
2026-04-16 09:27 50.72984 8.62750 25032 ft 442 kts 12°
2026-04-16 09:27 50.75931 8.64181 25360 ft 444 kts 12°
2026-04-16 09:27 50.78835 8.65928 25681 ft 451 kts 21°
2026-04-16 09:27 50.81571 8.68451 25989 ft 459 kts 31°
2026-04-16 09:28 50.84046 8.71709 26295 ft 467 kts 41°
2026-04-16 09:28 50.86181 8.75619 26591 ft 473 kts 49°
2026-04-16 09:28 50.88178 8.79777 26893 ft 475 kts 49°
2026-04-16 09:28 50.90182 8.83960 27186 ft 478 kts 49°
2026-04-16 09:29 50.92189 8.88166 27467 ft 479 kts 49°
2026-04-16 09:29 50.94206 8.92394 27740 ft 481 kts 49°
2026-04-16 09:29 50.96226 8.96631 27997 ft 483 kts 49°
2026-04-16 09:29 50.98253 9.00894 28249 ft 485 kts 49°
2026-04-16 09:30 51.00286 9.05185 28506 ft 487 kts 49°
2026-04-16 09:30 51.02326 9.09497 28735 ft 489 kts 49°
2026-04-16 09:30 51.04373 9.13829 28950 ft 491 kts 49°
2026-04-16 09:30 51.06428 9.18160 29256 ft 490 kts 48°
2026-04-16 09:31 51.08705 9.22138 29566 ft 484 kts 38°
2026-04-16 09:31 51.11297 9.25477 29896 ft 477 kts 29°
2026-04-16 09:31 51.14137 9.28137 30212 ft 470 kts 20°
2026-04-16 09:31 51.17151 9.30071 30497 ft 463 kts 12°
2026-04-16 09:32 51.20206 9.31291 30775 ft 458 kts
2026-04-16 09:32 51.23325 9.32349 31062 ft 458 kts
2026-04-16 09:32 51.26447 9.33420 31186 ft 458 kts
2026-04-16 09:33 51.32676 9.35593 31208 ft 458 kts
2026-04-16 09:33 51.38892 9.37781 31214 ft 458 kts
2026-04-16 09:34 51.45109 9.39967 31215 ft 458 kts
2026-04-16 09:34 51.51319 9.42352 31203 ft 459 kts
2026-04-16 09:35 51.57503 9.44960 31205 ft 460 kts
2026-04-16 09:35 51.63692 9.47570 31202 ft 460 kts
2026-04-16 09:36 51.69886 9.50131 31201 ft 460 kts
2026-04-16 09:36 51.76096 9.52680 31198 ft 460 kts
2026-04-16 09:37 51.82299 9.55249 31195 ft 460 kts
2026-04-16 09:37 51.88506 9.57831 31195 ft 460 kts
2026-04-16 09:38 51.94713 9.60418 31195 ft 461 kts
2026-04-16 09:38 52.00920 9.63023 31184 ft 461 kts
2026-04-16 09:39 52.07132 9.65632 31186 ft 461 kts
2026-04-16 09:39 52.13343 9.68243 31210 ft 461 kts
2026-04-16 09:40 52.19555 9.70851 30966 ft 459 kts
2026-04-16 09:40 52.22651 9.72156 30000 ft 461 kts
2026-04-16 09:40 52.25768 9.73477 28858 ft 464 kts
2026-04-16 09:40 52.28904 9.74808 27727 ft 467 kts
2026-04-16 09:41 52.32052 9.76150 26804 ft 466 kts
2026-04-16 09:41 52.35168 9.77480 26058 ft 461 kts 10°
2026-04-16 09:41 52.38252 9.78800 25352 ft 456 kts 10°
2026-04-16 09:41 52.41308 9.80110 24653 ft 452 kts 10°
2026-04-16 09:42 52.44336 9.81404 23990 ft 447 kts 10°
2026-04-16 09:42 52.47294 9.82663 23276 ft 444 kts 10°
2026-04-16 09:42 52.50270 9.83929 22565 ft 439 kts 11°
2026-04-16 09:42 52.53212 9.85190 21900 ft 435 kts 11°
2026-04-16 09:43 52.56125 9.86444 21271 ft 431 kts 11°
2026-04-16 09:43 52.59018 9.87691 20656 ft 428 kts 11°
2026-04-16 09:43 52.61892 9.88927 20208 ft 426 kts 12°
2026-04-16 09:43 52.64753 9.90155 19713 ft 424 kts 12°
2026-04-16 09:44 52.67600 9.91380 19229 ft 421 kts 12°
2026-04-16 09:44 52.70427 9.92604 18750 ft 418 kts 12°
2026-04-16 09:44 52.73233 9.93822 18249 ft 416 kts 12°
2026-04-16 09:44 52.76021 9.95033 17702 ft 413 kts 12°
2026-04-16 09:45 52.78788 9.96233 17168 ft 409 kts 12°
2026-04-16 09:45 52.81530 9.97428 16644 ft 406 kts 12°
2026-04-16 09:45 52.84255 9.98613 16142 ft 403 kts 12°
2026-04-16 09:45 52.86961 9.99788 15630 ft 401 kts 12°
2026-04-16 09:46 52.89648 10.00963 15135 ft 398 kts 12°
2026-04-16 09:46 52.92314 10.02130 14645 ft 395 kts 12°
2026-04-16 09:46 52.94965 10.03290 14161 ft 392 kts 12°
2026-04-16 09:46 52.97596 10.04444 13647 ft 390 kts 12°
2026-04-16 09:47 53.00212 10.05591 13113 ft 387 kts 12°
2026-04-16 09:47 53.02808 10.06727 12585 ft 384 kts 12°
2026-04-16 09:47 53.05349 10.07842 12073 ft 382 kts 11°
2026-04-16 09:47 53.07906 10.08970 11563 ft 379 kts 11°
2026-04-16 09:48 53.10449 10.10095 11059 ft 376 kts 11°
2026-04-16 09:48 53.12971 10.11212 10566 ft 374 kts 11°
2026-04-16 09:48 53.15459 10.12321 10222 ft 364 kts 11°
2026-04-16 09:48 53.17850 10.13405 10144 ft 347 kts 11°
2026-04-16 09:49 53.20111 10.14445 10160 ft 329 kts 11°
2026-04-16 09:49 53.22256 10.15446 10161 ft 312 kts 11°
2026-04-16 09:49 53.24302 10.16417 10162 ft 302 kts 11°
2026-04-16 09:49 53.26313 10.17377 10163 ft 300 kts 11°
2026-04-16 09:50 53.27641 10.18010 10069 ft 298 kts 11°
2026-04-16 09:50 53.29626 10.18960 9680 ft 296 kts 11°
2026-04-16 09:50 53.31602 10.19912 9302 ft 294 kts 11°
2026-04-16 09:50 53.33564 10.20865 8926 ft 292 kts 11°
2026-04-16 09:51 53.35509 10.21809 8549 ft 290 kts 11°
2026-04-16 09:51 53.37439 10.22743 8159 ft 288 kts 11°
2026-04-16 09:51 53.39358 10.23669 7780 ft 286 kts 11°
2026-04-16 09:51 53.41268 10.24588 7396 ft 284 kts 11°
2026-04-16 09:52 53.43163 10.25504 7028 ft 283 kts 11°
2026-04-16 09:52 53.45049 10.26413 6657 ft 281 kts 11°
2026-04-16 09:52 53.46924 10.27318 6266 ft 279 kts 12°
2026-04-16 09:52 53.48803 10.27910 5888 ft 272 kts 358°
2026-04-16 09:53 53.50691 10.27931 5466 ft 270 kts 355°
2026-04-16 09:53 53.52560 10.27852 5062 ft 269 kts 354°
2026-04-16 09:53 53.54424 10.27750 4701 ft 265 kts 354°
2026-04-16 09:53 53.56204 10.27645 4537 ft 247 kts 354°
2026-04-16 09:54 53.57862 10.27552 4326 ft 230 kts 354°
2026-04-16 09:54 53.59440 10.27469 4030 ft 225 kts 354°
2026-04-16 09:54 53.60994 10.27383 3603 ft 223 kts 355°
2026-04-16 09:54 53.62525 10.27281 3213 ft 223 kts 354°
2026-04-16 09:55 53.64068 10.27164 2944 ft 221 kts 354°
2026-04-16 09:55 53.65604 10.27062 2641 ft 221 kts 354°
2026-04-16 09:55 53.67113 10.26961 2481 ft 213 kts 354°
2026-04-16 09:55 53.68559 10.26689 2273 ft 205 kts 336°
2026-04-16 09:56 53.69684 10.25339 2066 ft 199 kts 309°
2026-04-16 09:56 53.70566 10.23541 2005 ft 198 kts 306°
2026-04-16 09:56 53.71378 10.21714 2022 ft 185 kts 298°
2026-04-16 09:56 53.71752 10.19752 2008 ft 165 kts 275°
2026-04-16 09:57 53.71735 10.17977 2016 ft 143 kts 261°
2026-04-16 09:57 53.71468 10.16401 2009 ft 137 kts 246°
2026-04-16 09:57 53.70997 10.15020 2004 ft 136 kts 235°
2026-04-16 09:57 53.70396 10.13786 2005 ft 135 kts 232°
2026-04-16 09:58 53.69795 10.12561 1909 ft 135 kts 232°
2026-04-16 09:58 53.69195 10.11337 1752 ft 135 kts 232°
2026-04-16 09:58 53.68604 10.10113 1539 ft 134 kts 232°
2026-04-16 09:58 53.68011 10.08898 1322 ft 135 kts 231°
2026-04-16 09:59 53.67408 10.07707 1197 ft 135 kts 230°
2026-04-16 09:59 53.66809 10.06493 995 ft 134 kts 232°
2026-04-16 09:59 53.66216 10.05289 800 ft 133 kts 231°
2026-04-16 09:59 53.65627 10.04078 610 ft 134 kts 231°
2026-04-16 10:00 53.65033 10.02879 472 ft 135 kts 230°
2026-04-16 10:00 53.64422 10.01628 321 ft 137 kts 230°
2026-04-16 10:00 53.63820 10.00401 144 ft 137 kts 230°
2026-04-16 10:01 53.62700 9.98149 50 ft 79 kts 230°
2026-04-16 10:01 53.62513 9.97773 46 ft 18 kts 214°
2026-04-16 10:01 53.62477 9.97779 44 ft 16 kts 148°
2026-04-16 10:02 53.62429 9.97909 50 ft 0 kts 83°
2026-04-16 10:02 53.62432 9.97948 50 ft 12 kts 81°
2026-04-16 10:02 53.62463 9.98085 50 ft 12 kts 59°
2026-04-16 10:03 53.62527 9.98219 50 ft 18 kts 51°
2026-04-16 10:03 53.62615 9.98403 50 ft 21 kts 51°
2026-04-16 10:03 53.62713 9.98599 50 ft 23 kts 50°
2026-04-16 10:03 53.62818 9.98812 50 ft 25 kts 49°
2026-04-16 10:04 53.62931 9.99039 50 ft 26 kts 50°
2026-04-16 10:04 53.63028 9.99239 50 ft 13 kts 52°
2026-04-16 10:04 53.63049 9.99282 50 ft 0 kts 51°
2026-04-16 10:05 53.63050 9.99286 50 ft 3 kts 51°
2026-04-16 10:05 53.63070 9.99331 50 ft 6 kts 54°
2026-04-16 10:05 53.63087 9.99371 50 ft 0 kts 56°
2026-04-16 10:06 53.63117 9.99442 50 ft 11 kts 54°
2026-04-16 10:06 53.63170 9.99563 49 ft 13 kts 51°
2026-04-16 10:06 53.63226 9.99674 50 ft 13 kts 47°
2026-04-16 10:06 53.63308 9.99821 50 ft 19 kts 50°
2026-04-16 10:07 53.63396 10.00004 51 ft 21 kts 49°
2026-04-16 10:07 53.63441 10.00132 51 ft 6 kts 125°
2026-04-16 10:07 53.63404 10.00188 51 ft 8 kts 132°
2026-04-16 10:07 53.63374 10.00234 51 ft 3 kts 122°
2026-04-16 10:08 53.63370 10.00270 51 ft 3 kts 94°
2026-04-16 10:08 53.63372 10.00297 51 ft 2 kts 86°
2026-04-16 10:08 53.63373 10.00322 51 ft 2 kts 86°
2026-04-16 10:08 53.63373 10.00337 48 ft 0 kts 86°